Location: Kunchanapalle
(16.4623°N, 80.6176°E)
Time: 13:42:25
(UTC+00:00)

Cosmos 1605 Rocket - Pass Details

Date: 13 August 2020
Orbit: 946 x 1005 km, 82.9° (Epoch: 25 September)

Event Time Altitude Azimuth Distance (km) Brightness Sun altitude
Exits shadow 15:25:27 52° 0° (N) 1,175 4.4 -32.4°
Drops below altitude 10° 15:29:54 10° 3° (N) 2,669 6.5 -33.4°
Sets 15:32:23 0° 4° (N) 3,611 7.3 -33.9°
